Regional Weather Roundup
Issued by NWS

Home | Current Version | Previous Version | Graphics & Text | Print | Product List | Glossary On
Versions: 1 2 3 4 5 6 7 8 9 10 11 12 13 14 15 16 17 18 19 20 21 22 23 24 25 26 27 28 29 30 31 32 33 34 35 36 37 38 39 40 41 42 43 44 45 46 47 48 49 50
966
ASUS43 KFSD 030810
RWRSD

WEATHER ROUNDUP FOR SOUTH DAKOTA
NATIONAL WEATHER SERVICE SIOUX FALLS SD
300 AM CDT TUE MAY 03 2016

NOTE: "FAIR" INDICATES FEW OR NO CLOUDS BELOW 12,000 FEET WITH NO
SIGNIFICANT WEATHER AND/OR OBSTRUCTIONS TO VISIBILITY.


SDZ001>005-009-010-012>017-030900-
NORTHWEST AND NORTH CENTRAL SOUTH DAKOTA

CITY           SKY/WX    TMP DP  RH WIND       PRES   REMARKS
BUFFALO          N/A     42  33  70 W8        30.00S
FAITH            N/A     43  38  82 W5        30.04S
MOBRIDGE       CLOUDY    40  38  93 CALM      29.99S
$$

SDZ012>016-024>037-041>051-057-063-072>074-030900-
SOUTHWEST AND SOUTH CENTRAL SOUTH DAKOTA

CITY           SKY/WX    TMP DP  RH WIND       PRES   REMARKS
RAPID CTY ARPT CLEAR     39  34  82 NW9       30.06F
PIERRE         CLEAR     42  39  89 W8        30.03F
CUSTER         MOCLDY    39  28  64 N7        30.12R
ELLSWORTH AFB  CLEAR     41  36  83 W7        30.06S
PHILIP         MOCLDY    34  33  96 W5        30.05F FOG     WCI  30
PINE RIDGE     CLEAR     33  31  92 E3        30.07R
WINNER         FAIR      42  38  85 SW7       30.04S
$$

SDZ004>011-016>023-039-040-030900-
NORTHEAST SOUTH DAKOTA

CITY           SKY/WX    TMP DP  RH WIND       PRES   REMARKS
ABERDEEN       CLOUDY    37  34  89 SW3       30.01F
WATERTOWN      CLEAR     41  37  86 CALM      30.00F
BROOKINGS      CLEAR     41  38  89 CALM      30.01S
SISSETON         N/A     44  37  76 NW3       29.98F
$$

SDZ017-020-022-023-036>040-048>070-030900-
SOUTHEAST SOUTH DAKOTA

CITY           SKY/WX    TMP DP  RH WIND       PRES   REMARKS
SIOUX FALLS    CLEAR     39  35  86 CALM      30.02F
HURON          CLEAR     41  40  96 W5        30.02S
CHAMBERLAIN    CLEAR     44  43  96 NW7       30.04S
MITCHELL       CLEAR     45  44  97 S5        30.03S
YANKTON        CLEAR     45  39  81 W3        30.02S
$$

ABBREVIATIONS USED IN REMARKS
   TC - TEMPERATURE IN CELSIUS
  WCI - WIND CHILL INDEX
   HX - HEAT INDEX
  VSB - VISIBILITY





USA.gov is the U.S. government's official web portal to all federal, state and local government web resources and services.